Location: La Pernelle
(49.6188°N, 1.2999°W)
Time: 19:18:51
(UTC+00:00)

COSMOS 2251 DEB - Visible Passes

Search period start: 16 January 2022 00:00
Search period end: 26 January 2022 00:00
Orbit: 715 x 736 km, 74.0° (Epoch: 15 January)

Date Brightness Start Highest point End Pass type
(mag) Time Alt. Az. Time Alt. Az. Time Alt. Az.
16 Jan ? 18:44:07 10° N 18:47:00 24° NNE 18:47:00 24° NNE visible
16 Jan ? 20:25:01 10° NNW 20:26:24 18° NW 20:26:24 18° NW visible
17 Jan ? 17:54:56 10° N 17:58:12 17° NE 17:58:42 17° NE visible
17 Jan ? 19:35:05 10° NNW 19:38:07 37° NNW 19:38:07 37° NNW visible
18 Jan ? 18:45:24 10° NNW 18:49:58 41° NE 18:49:58 41° NE visible
18 Jan ? 20:26:47 10° NW 20:29:24 24° WNW 20:29:24 24° WNW visible
19 Jan ? 17:55:58 10° N 18:00:03 23° NE 18:02:03 19° E visible
19 Jan ? 19:36:36 10° NNW 19:41:29 65° W 19:41:29 65° W visible
20 Jan ? 18:46:46 10° NNW 18:51:51 63° ENE 18:53:56 34° SE visible
20 Jan ? 20:28:49 10° NW 20:32:30 20° W 20:33:25 19° WSW visible
21 Jan ? 17:57:10 10° N 18:01:47 33° NE 18:06:22 10° ESE visible
21 Jan ? 19:38:16 10° NW 19:43:02 41° WSW 19:46:35 17° SSW visible
22 Jan ? 18:48:12 10° NNW 18:53:20 84° WSW 18:58:25 10° SSE visible
22 Jan ? 20:31:28 10° WNW 20:33:37 13° W 20:35:47 10° WSW visible
23 Jan ? 17:58:27 10° NNW 18:03:25 49° ENE 18:08:20 10° SE visible
23 Jan ? 19:40:05 10° NW 19:44:17 26° W 19:48:27 10° SSW visible
24 Jan ? 18:49:45 10° NNW 18:54:43 54° WSW 18:59:39 10° S visible
25 Jan ? 17:59:49 10° NNW 18:04:56 76° ENE 18:10:00 10° SSE visible
25 Jan ? 19:42:14 10° NW 19:45:26 17° W 19:48:37 10° SW visible
